Regional Weather Roundup
Issued by NWS

Home | Current Version | Previous Version | Text Only | Print | Product List | Glossary On
Versions: 1 2 3 4 5 6 7 8 9 10 11 12 13 14 15 16 17 18 19 20 21 22 23 24 25 26 27 28 29 30 31 32 33 34 35 36 37 38 39 40 41 42 43 44 45 46 47 48 49 50
000
ASUS46 KPQR 210710
RWROR

OREGON REGIONAL WEATHER ROUNDUP
NATIONAL WEATHER SERVICE PORTLAND OR
1100 PM PST TUE FEB 20 2018

NOTE: "FAIR" INDICATES FEW OR NO CLOUDS BELOW 12,000 FEET WITH
NO SIGNIFICANT WEATHER AND/OR OBSTRUCTIONS TO VISIBILITY.

ORZ001>013-210800-
NORTHWEST OREGON


CITY           SKY/WX    TMP DP  RH WIND       PRES   REMARKS
ASTORIA        MOCLDY    33  30  88 E12       30.23R WCI  24
TILLAMOOK      FOG       34  34 100 CALM      30.20R VSB 3/4
NEWPORT        CLOUDY    36  36 100 E3        30.19R
PORTLAND       CLOUDY    32  30  92 CALM      30.22R
VANCOUVER WA   CLOUDY    33  32  96 NW3       30.21R
SCAPPOOSE      CLOUDY    33  31  92 N7        30.22R
HILLSBORO      LGT SNOW  32  30  92 E5        30.20S FOG
AURORA         CLOUDY    33  32  96 N5        30.20R
MCMINNVILLE    MOCLDY    34  32  92 N7        30.19R
SALEM          LGT SNOW  34  32  92 NE7       30.17S FOG
CORVALLIS      LGT RAIN  38  36  92 CALM      30.17R
EUGENE         LGT RAIN  35  34  96 S8        30.17S
$$

ORZ021-028-210800-
SOUTHWEST OREGON


CITY           SKY/WX    TMP DP  RH WIND       PRES   REMARKS
NORTH BEND     RAIN      41  37  86 SW6       30.20R
BROOKINGS      MOCLDY    38  34  85 SE5       30.17F
ROSEBURG       CLOUDY    38  33  82 SE3       30.15S
SEXTON SUMMIT  CLOUDY    26  26 100 S8        30.04R
GRANTS PASS    DRIZZLE   36  34  93 CALM      30.17R
MEDFORD        CLOUDY    36  28  73 NE5       30.13R
$$

ORZ014>016-041-210800-
COLUMBIA GORGE


CITY           SKY/WX    TMP DP  RH WIND       PRES   REMARKS
TROUTDALE      CLOUDY    33  29  85 E12       30.22R WCI  24
HOOD RIVER     LGT SNOW  28  28 100 NW3       30.28R
THE DALLES     LGT SNOW  30  27  88 S6        30.30R FOG
$$

ORZ029>031-041-044-049-050-061>064-502-503-505>511-210800-
EASTERN OREGON


CITY           SKY/WX    TMP DP  RH WIND       PRES   REMARKS
MADRAS         NOT AVBL
REDMOND        LGT SNOW  28  26  92 NE6       30.02S FOG
BEND           PTCLDY    28  23  80 S6        30.01F
PRINEVILLE     LGT SNOW  27  27 100 CALM      30.03S
KLAMATH FALLS  CLOUDY    26  18  71 E3        30.04R
LAKEVIEW       CLOUDY    18  13  80 N3        30.04R
HERMISTON      CLOUDY    28  23  81 N8        30.25R
PENDLETON      LGT SNOW  26  23  88 NE14      30.18R FOG     WCI  14
JOHN DAY       CLOUDY    24  21  88 CALM      30.03F
MEACHAM        LGT SNOW  18  14  84 CALM      30.03S FOG
LA GRANDE      CLOUDY    23  13  65 SE15      30.13S WCI  10
BAKER CITY     CLOUDY    21   6  52 E10       30.10R WCI  10
BURNS          CLOUDY    23  14  68 CALM      30.03S
ROME             N/A     23   1  38 S5        30.04S
ONTARIO        CLOUDY    24   9  52 N3        30.20F
$$



USA.gov is the U.S. government's official web portal to all federal, state and local government web resources and services.